Weather History for KJER - July, 2013

Change the Weather History Date:

Tuesday, July 2, 2013

  Actual Average Record
Temperature  
Mean Temperature 83 °F 68 °F  
Max Temperature 100 °F 83 °F 104 °F (1924)
Min Temperature 66 °F 54 °F 38 °F (1955)
Degree Days  
Heating Degree Days 0 1  
Month to date heating degree days 0 2  
Since 1 June heating degree days 78 109  
Since 1 July heating degree days 0 2  
Cooling Degree Days 18 5  
Month to date cooling degree days 38 9  
Year to date cooling degree days 183 90  
Since 1 June cooling degree days 168 77  
Growing Degree Days 34 (Base 50)    
Moisture  
Dew Point 50 °F    
Average Humidity 31    
Maximum Humidity 46    
Minimum Humidity 16    
Precipitation  
Precipitation 0.00 in 0.00 in 0.17 in (1983)
Month to date precipitation 0.00 0.01  
Year to date precipitation 2.52 6.38  
Sea Level Pressure  
Sea Level Pressure 29.94 in    
Wind  
Wind Speed 10 mph (ENE)    
Max Wind Speed 33 mph    
Max Gust Speed 45 mph    
Visibility 10 miles    
Events      
T = Trace of Precipitation, MM = Missing Value Source: NWS Daily Summary

Daily Weather History Graph

Daily Weather History Graph

Search for Another Location

Airport or City:

Trip Planner

Search our weather history database for the weather conditions in past years. The results will help you decide how hot, cold, wet, or windy it might be!

Date:

Astronomy

Jul. 02, 2013 Rise Set
Actual Time 6:04 AM MDT 9:19 PM MDT
Civil Twilight 5:29 AM MDT 9:54 PM MDT
Nautical Twilight 4:44 AM MDT 10:39 PM MDT
Astronomical Twilight 3:49 AM MDT 11:33 PM MDT
Moon 2:13 AM MDT (7/2) 4:34 PM MDT (7/2)
Length of Visible Light 16h 24m
Length of Day
15h 15m
Waning Crescent, 26% of the Moon is Illuminated
Jul 2
Waning Crescent
Jul 8
New
Jul 15
First Quarter
Jul 22
Full
Jul 29
Last Quarter

Hourly Weather History & Observations

Time (MDT) Temp. Heat Index Dew Point Humidity Pressure Visibility Wind Dir Wind Speed Gust Speed Precip Events Conditions
12:53 AM 84.0 °F - 43.0 °F 24% 29.92 in 10.0 mi Calm Calm - N/A   Clear
1:53 AM 73.9 °F - 51.1 °F 45% 29.95 in 10.0 mi NW 5.8 mph - N/A   Clear
2:53 AM 73.0 °F - 50.0 °F 44% 29.96 in 10.0 mi NNE 10.4 mph - N/A   Clear
3:53 AM 72.0 °F - 48.9 °F 44% 29.97 in 10.0 mi East 6.9 mph - N/A   Clear
4:53 AM 71.1 °F - 46.9 °F 42% 29.97 in 10.0 mi East 6.9 mph - N/A   Clear
5:53 AM 71.1 °F - 48.0 °F 44% 29.98 in 10.0 mi ENE 6.9 mph - N/A   Clear
6:53 AM 72.0 °F - 50.0 °F 46% 29.99 in 10.0 mi ENE 10.4 mph - N/A   Clear
8:53 AM 79.0 °F - 48.9 °F 35% 30.01 in 10.0 mi East 12.7 mph - N/A   Clear
9:53 AM 82.9 °F 81.8 °F 53.1 °F 36% 30.01 in 10.0 mi East 10.4 mph - N/A   Clear
10:53 AM 88.0 °F - 52.0 °F 29% 29.99 in 10.0 mi ESE 10.4 mph - N/A   Clear
11:53 AM 91.0 °F - 48.9 °F 23% 29.99 in 10.0 mi ESE 11.5 mph - N/A   Clear
12:53 PM 93.0 °F - 45.0 °F 19% 29.96 in 10.0 mi East 9.2 mph - N/A   Clear
1:53 PM 95.0 °F - 48.9 °F 21% 29.96 in 10.0 mi SE 6.9 mph - N/A   Clear
2:53 PM 97.0 °F - 46.0 °F 18% 29.94 in 10.0 mi South 6.9 mph - N/A   Clear
3:53 PM 98.1 °F - 45.0 °F 16% 29.92 in 10.0 mi Variable 3.5 mph - N/A   Clear
4:53 PM 98.1 °F - 46.9 °F 18% 29.89 in 10.0 mi South 4.6 mph - N/A   Clear
5:53 PM 98.1 °F 96.1 °F 54.0 °F 23% 29.87 in 10.0 mi Calm Calm - N/A   Clear
6:53 PM 98.1 °F 97.2 °F 57.9 °F 26% 29.87 in 10.0 mi NW 3.5 mph - N/A   Clear
7:53 PM 93.9 °F 92.0 °F 55.0 °F 27% 29.86 in 10.0 mi Calm Calm - N/A   Clear
8:53 PM 84.9 °F 83.3 °F 54.0 °F 34% 29.88 in 10.0 mi ENE 10.4 mph - N/A   Clear
9:53 PM 84.0 °F - 46.0 °F 26% 29.91 in 10.0 mi NE 18.4 mph 25.3 mph N/A   Clear
10:53 PM 81.0 °F - 50.0 °F 34% 29.93 in 10.0 mi NNE 19.6 mph - N/A   Clear
11:53 PM 81.0 °F - 50.0 °F 34% 29.91 in 10.0 mi NNE 27.6 mph 44.9 mph N/A   Clear